Flag for Brazil Weather past 2 weeks in Campos, Rio de Janeiro, Brazil

Now
90 °F

Passing clouds.


Feels Like: 98 °F
Forecast: 78 / 95 °F
Wind: 5 mph from North

Location: Rio De Janeiro Airport

Current Time: Dec 21, 2014 at 9:38:39 AM

Latest Report: Dec 21, 2014 at 9:00 AM


Visibility: N/A

Pressure: 29.80 "Hg

Humidity: 59%

Dew point: 73 °F

Location of CamposLocation

Historic Weather in Campos — Graph

°F

Campos temperature yesterday

Maximum temperature yesterday: 88 °F (at 6:00 PM)
Minimum temperature yesterday: 75 °F (at 6:00 AM)
Average temperature yesterday: 80 °F

Past Weeks' High & Low Weather Summary

 TemperatureHumidityPressure
High91 °F (Dec 12, 11:00 AM)94% (Dec 10, 6:00 AM)30.07 "Hg (Dec 10, 6:00 AM)
Low70 °F (Dec 16, 6:00 AM)43% (Dec 18, 3:00 PM)29.68 "Hg (Dec 18, 5:00 PM)
Average80 °F72%29.87 "Hg
* Reported Dec 6 8:00 AM — Dec 21 8:00 AM, Campos, Weather by CustomWeather, © 2014

Note: Actual official high and low records may vary slightly from our data, if they occured in-between our weather recording intervals... More about our weather records

Advertising

Campos weather history for previous 24 hours

 ConditionsComfort  
Time TempWeatherWind HumidityBarometerVisibility
8:00 AM
Dec 21
82 °FPassing clouds.8 mph79%29.77 "HgN/A
7:00 AM79 °FScattered clouds.3 mph89%29.77 "HgN/A
6:00 AM77 °FPassing clouds.7 mph94%29.74 "HgN/A
11:00 PM
Dec 20
77 °FClear.2 mph89%29.77 "Hg10 mi
10:00 PM79 °FClear.5 mph84%29.77 "Hg10 mi
9:00 PM81 °FClear.10 mph74%29.74 "Hg10 mi
8:00 PM81 °FClear.12 mph79%29.74 "Hg10 mi
7:00 PM79 °FPartly sunny.8 mph84%29.74 "HgN/A
6:00 PM88 °FPartly sunny.7 mph59%29.74 "HgN/A
5:00 PM82 °FPartly sunny.14 mph74%29.74 "HgN/A
4:00 PM81 °FPartly sunny.12 mph74%29.74 "HgN/A
3:00 PM82 °FPartly sunny.14 mph74%29.77 "HgN/A
2:00 PM84 °FPartly sunny.10 mph66%29.77 "HgN/A
1:00 PM82 °FPartly sunny.12 mph70%29.77 "HgN/A
12:00 PM86 °FPartly sunny.14 mph66%29.80 "HgN/A
11:00 AM79 °FBroken clouds.9 mph84%29.80 "Hg6 mi
10:00 AM81 °FFog.3 mph79%29.80 "Hg3 mi
9:00 AM79 °FBroken clouds.No wind84%29.80 "Hg4 mi
Weather by CustomWeather, © 2014

See weather overviewHow to use our weather pages